Location: B?dimalle
(17.1788°N, 80.5377°E)
Time: 09:57:41
(UTC+00:00)

Tiros 1 despin weight - Pass Details

Date: 23 February 2026
Orbit: 556 x 593 km, 48.2° (Epoch: 10 March)

Event Time Altitude Azimuth Distance (km) Brightness Sun altitude
Rises 05:44:10 0° 229° (SW) 2,778 ? 58.3°
Reaches altitude 10° 05:46:29 10° 233° (SW) 1,874 ? 58.6°
Maximum altitude 05:50:42 59° 313° (NW) 660 ? 59.1°
Drops below altitude 10° 05:54:53 10° 33° (NNE) 1,853 ? 59.6°
Sets 05:57:09 0° 37° (NE) 2,743 ? 59.9°
